This is the latest recevied weather packets stored in our database for station/object HOWARD. If no packets are shown the sender has not sent any weather packets the latest 10 day(s).
| Time | Temp. | Humidity | Pressure | Rain* | Wind** | Luminosity | Snow |
|---|---|---|---|---|---|---|---|
| 1777936907 | 11.11° C | 47% | 1008.1 hPa | 0 mm | - | - | - |
| 1777936307 | 11.11° C | 49% | 1008.1 hPa | 0 mm | - | - | - |
| 1777935709 | 11.11° C | 49% | 1008.3 hPa | 0 mm | - | - | - |
| 1777935107 | 11.11° C | 49% | 1008.4 hPa | 0 mm | - | - | - |
| 1777934553 | 11.11° C | 49% | 1008.4 hPa | 0 mm | - | - | - |
| 1777934507 | 11.11° C | 49% | 1008.4 hPa | 0 mm | - | - | - |
| 1777933907 | 11.11° C | 49% | 1008.6 hPa | 0 mm | - | - | - |
| 1777933307 | 11.11° C | 48% | 1008.8 hPa | 0 mm | - | - | - |
| 1777932707 | 11.11° C | 48% | 1008.8 hPa | 0 mm | - | - | - |
| 1777932107 | 11.11° C | 49% | 1008.9 hPa | 0 mm | - | - | - |
| 1777931507 | 11.11° C | 47% | 1009 hPa | 0 mm | - | - | - |
| 1777930908 | 11.11° C | 45% | 1009.2 hPa | 0 mm | - | - | - |
| 1777930307 | 10.56° C | 46% | 1009.3 hPa | 0 mm | - | - | - |
| 1777929707 | 11.11° C | 46% | 1009.3 hPa | 0 mm | - | - | - |
| 1777929107 | 10.56° C | 44% | 1009.3 hPa | 0 mm | - | - | - |
| 1777928507 | 10.56° C | 44% | 1009.5 hPa | 0 mm | - | - | - |
| 1777927908 | 10.56° C | 44% | 1009.4 hPa | 0 mm | - | - | - |
| 1777927307 | 10° C | 45% | 1009.4 hPa | 0 mm | - | - | - |
| 1777926707 | 10° C | 44% | 1009.5 hPa | 0 mm | - | - | - |
| 1777926143 | 10.56° C | 44% | 1009.6 hPa | 0 mm | - | - | - |
| 1777926107 | 10.56° C | 44% | 1009.6 hPa | 0 mm | - | - | - |
| 1777925507 | 10.56° C | 38% | 1009.5 hPa | 0 mm | - | - | - |
| 1777924907 | 10° C | - | 1009.5 hPa | 0 mm | - | - | - |
| 1777924307 | 10° C | 37% | 1009.3 hPa | 0 mm | - | - | - |
| 1777923707 | 10° C | 38% | 1009.2 hPa | 0 mm | - | - | - |
* Rain latest hour (hover to see other rain measurements)
** Current wind speed in m/s (hover to see current wind gust speed)